Regional Weather Roundup
Issued by NWS

Home | Current Version | Previous Version | Text Only | Print | Product List | Glossary Off
Versions: 1 2 3 4 5 6 7 8 9 10 11 12 13 14 15 16 17 18 19 20 21 22 23 24 25 26 27 28 29 30 31 32 33 34 35 36 37 38 39 40 41 42 43 44 45 46 47 48 49 50

000
ASUS43 KIND 010359
RWRIN

WEATHER ROUNDUP FOR INDIANA
NATIONAL WEATHER SERVICE INDIANAPOLIS IN
1200 AM EDT SUN MAY 01 2016

NOTE: "FAIR" INDICATES FEW OR NO CLOUDS BELOW 12,000 FEET WITH NO
SIGNIFICANT WEATHER AND/OR OBSTRUCTIONS TO VISIBILITY.

* - STATION DOES NOT REPORT WEATHER SUCH AS PRECIPITATION OR FOG.

+ - STATION NOT QUALITY CONTROLLED BY THE NATIONAL WEATHER SERVICE.
    USE DATA WITH CAUTION...ESPECIALLY DEWPOINT AND RELATIVE
    HUMIDITY OBSERVATIONS.

INZ001>003-010>013-019-020-010500-
NORTHWEST INDIANA

CITY           SKY/WX    TMP DP  RH WIND       PRES   REMARKS

$$

LMZ046-743>745-010500-
SOUTHERN LAKE MICHIGAN

STATION/POSITION TIME  TEMP    WIND        PRES    WAVE
                       AIR SEA DIR/SP/G            HT
                 (UTC) (F)     (DEG/KT/KT) (MB)    (FT)
BURNS HARBOR     0309   47      50/ 15/ 18 1013.2S
MICHIGAN CITY    0300   47      30/ 13/ 15   N/A

$$

INZ004-005-014>016-021>024-010500-
NORTH CENTRAL INDIANA

CITY           SKY/WX    TMP DP  RH WIND       PRES   REMARKS
GOSHEN         LGT RAIN  47  45  93 NE8       29.90F FOG
PERU/GRISSOM   DRIZZLE   54  54 100 E6        29.83F FOG
SOUTH BEND     CLOUDY    47  46  97 E9        29.91F FOG

$$

INZ006>009-017-018-025>027-010500-
NORTHEAST INDIANA

CITY           SKY/WX    TMP DP  RH WIND       PRES   REMARKS
ANGOLA *+      CLOUDY    46  36  66 E8        29.92S
FORT WAYNE     LGT RAIN  50  48  93 NE8       29.89S FOG

$$

INZ028-029-035-036-043>045-051>053-010500-
WEST CENTRAL INDIANA

CITY           SKY/WX    TMP DP  RH WIND       PRES   REMARKS
CRAWFORDSVL +  CLOUDY    59  59 100 S8        29.86S
LAFAYETTE      MOCLDY    55  54  96 CALM      29.84S FOG
TERRE HAUTE    PTCLDY    65  61  87 SW10      29.86S

$$

INZ030>032-037>040-046>048-054>057-064-065-010500-
CENTRAL INDIANA

CITY           SKY/WX    TMP DP  RH WIND       PRES   REMARKS
CP ATTERBURY + LGT RAIN  63  59  88 CALM      29.89R
INDIANAPOLIS   TSTM      61  59  93 SW5       29.86S FOG
-EAGLE CREEK   CLOUDY    62  60  93 S7        29.86R
KOKOMO *+      CLOUDY    55  54  94 CALM      29.85S
SHELBYVILLE    RAIN      63  60  90 S10       29.87S

$$

INZ033-034-041-042-049-050-058-059-010500-
EAST CENTRAL INDIANA

CITY           SKY/WX    TMP DP  RH WIND       PRES   REMARKS
MUNCIE         CLOUDY    62  58  86 S8        29.86F

$$

INZ060-061-067>069-081>083-085>088-010500-
SOUTHWEST INDIANA

CITY           SKY/WX    TMP DP  RH WIND       PRES   REMARKS
EVANSVILLE     CLOUDY    66  64  93 CALM      29.87R
HUNTINGBURG *+ CLOUDY    64  61  88 CALM      29.87S

$$

INZ062-063-066-070>080-084-089>092-010500-
SOUTH CENTRAL AND SOUTHEAST INDIANA

CITY           SKY/WX    TMP DP  RH WIND       PRES   REMARKS
BLOOMINGTON    LGT RAIN  63  61  93 CALM      29.88R
MADISON *+     CLOUDY    63  61  94 SE6       29.91F
SEYMOUR +      CLOUDY    64  63  94 CALM      29.88F

$$





USA.gov is the U.S. government's official web portal to all federal, state and local government web resources and services.